User: anonymous   Login
Location: Foulognes
(49.1413°N, 0.8183°W)
Time: 03:42:03
(UTC+00:00)
Language:

STARLINK-55 - Orbit

View from above orbital plane
View from above orbital plane
View from above satellite
View from above satellite

Ground track
Ground track

The orbit data is extracted from the following two-line orbital elements,

1 44268U 19029AK  19340.91668981  .00320763  00000-0  17650-1 0  9991
2 44268  52.9983   7.8125 0001348 130.4515  82.5607 15.12041338 29760
Epoch (UTC): 06 December 2019 22:00:02
Eccentricity: 0.0001348
inclination: 52.9983°
perigee height: 529 km
apogee height: 531 km
right ascension of ascending node: 7.8125°
argument of perigee: 130.4515°
revolutions per day: 15.12041338
mean anomaly at epoch: 82.5607°
orbit number at epoch: 2976

The dashed part of the orbit path shows where the satellite is in the earth's shadow,  

DLR